QPF
0.00 0.00 0.00 0.00 0.00 0.00 0.00 0.00 0.00 0.00 0.00 0.00 0.00 0.00 0.00 0.00 0.00 0.00 0.00 0.00 0.00 0.00 0.00 0.00 0.00 0.00 0.00 0.00 0.00 0.00 0.00 0.01 0.03 0.03 0.03 0.03 0.02 0.01
0.00 0.00 0.00 0.00 0.00 0.00 0.00 0.00 0.00 0.00 0.00 0.00 0.00 0.00 0.00 0.00 0.00 0.00 0.00 0.00 0.00 0.00 0.00 0.00 0.00 0.00 0.00 0.00 0.00 0.00 0.00 0.00 0.02 0.03 0.03 0.03 0.02 0.01
0.00 0.00 0.00 0.00 0.00 0.00 0.00 0.00 0.00 0.00 0.00 0.00 0.00 0.00 0.00 0.00 0.00 0.00 0.00 0.00 0.00 0.00 0.00 0.00 0.00 0.00 0.00 0.00 0.00 0.00 0.00 0.01 0.02 0.04 0.04 0.04 0.03 0.03
0.00 0.00 0.00 0.00 0.00 0.00 0.00 0.00 0.00 0.00 0.00 0.00 0.00 0.00 0.00 0.00 0.00 0.00 0.00 0.00 0.00 0.00 0.00 0.00 0.00 0.00 0.00 0.00 0.00 0.00 0.00 0.00 0.00 0.01 0.02 0.03 0.03 0.04
0.00 0.00 0.00 0.00 0.00 0.00 0.00 0.00 0.00 0.00 0.00 0.00 0.00 0.00 0.00 0.00 0.00 0.00 0.00 0.00 0.00 0.00 0.00 0.00 0.00 0.00 0.00 0.00 0.00 0.00 0.00 0.00 0.00 0.00 0.00 0.00 0.01 0.03
0.00 0.00 0.00 0.00 0.00 0.00 0.00 0.00 0.00 0.00 0.00 0.00 0.00 0.00 0.00 0.00 0.00 0.00 0.00 0.00 0.00 0.00 0.00 0.00 0.00 0.00 0.00 0.00 0.00 0.00 0.00 0.00 0.00 0.00 0.00 0.00 0.00 0.00
0.00 0.00 0.00 0.00 0.00 0.00 0.00 0.00 0.00 0.00 0.00 0.00 0.00 0.00 0.00 0.00 0.00 0.00 0.00 0.00 0.00 0.00 0.00 0.00 0.00 0.00 0.00 0.00 0.00 0.00 0.00 0.00 0.00 0.00 0.00 0.00 0.00 0.00
0.00 0.00 0.00 0.00 0.00 0.00 0.00 0.00 0.00 0.00 0.00 0.00 0.00 0.00 0.00 0.00 0.00 0.00 0.00 0.00 0.00 0.00 0.00 0.00 0.00 0.00 0.00 0.00 0.00 0.00 0.00 0.00 0.00 0.00 0.00 0.00 0.00 0.00
0.00 0.00 0.00 0.00 0.00 0.00 0.00 0.00 0.00 0.00 0.00 0.00 0.00 0.00 0.00 0.00 0.00 0.00 0.00 0.00 0.00 0.00 0.00 0.00 0.00 0.00 0.00 0.00 0.00 0.00 0.00 0.00 0.00 0.00 0.00 0.00 0.00 0.00
0.00 0.00 0.00 0.00 0.00 0.00 0.00 0.00 0.00 0.00 0.00 0.00 0.00 0.00 0.00 0.00 0.00 0.00 0.00 0.00 0.00 0.00 0.00 0.00 0.00 0.00 0.00 0.00 0.00 0.00 0.00 0.00 0.00 0.00 0.00 0.00 0.00 0.00
0.00 0.00 0.00 0.00 0.00 0.00 0.00 0.00 0.00 0.00 0.00 0.00 0.00 0.00 0.00 0.00 0.00 0.00 0.00 0.00 0.00 0.00 0.00 0.00 0.00 0.00 0.00 0.00 0.00 0.00 0.00 0.00 0.00 0.00 0.00 0.00 0.00 0.00
0.00 0.00 0.00 0.00 0.00 0.00 0.00 0.00 0.00 0.00 0.00 0.00 0.00 0.00 0.00 0.00 0.00 0.00 0.00 0.00 0.00 0.00 0.00 0.00 0.00 0.00 0.00 0.00 0.00 0.00 0.00 0.00 0.00 0.00 0.00 0.00 0.00 0.00
0.00 0.00 0.00 0.00 0.00 0.00 0.00 0.00 0.00 0.00 0.00 0.00 0.00 0.00 0.00 0.00 0.00 0.00 0.00 0.00 0.00 0.00 0.00 0.00 0.00 0.00 0.00 0.00 0.00 0.00 0.00 0.00 0.00 0.00 0.00 0.00 0.00 0.00
0.00 0.00 0.00 0.00 0.00 0.00 0.00 0.00 0.00 0.00 0.00 0.00 0.00 0.00 0.00 0.00 0.00 0.00 0.00 0.00 0.00 0.00 0.00 0.00 0.00 0.00 0.00 0.00 0.00 0.00 0.00 0.00 0.00 0.00 0.00 0.00 0.00 0.00
0.00 0.00 0.00 0.00 0.00 0.00 0.00 0.00 0.00 0.00 0.00 0.00 0.00 0.00 0.00 0.00 0.00 0.00 0.00 0.00 0.00 0.00 0.00 0.00 0.00 0.00 0.00 0.00 0.00 0.00 0.00 0.00 0.00 0.00 0.00 0.00 0.00 0.00
0.00 0.00 0.00 0.00 0.00 0.00 0.00 0.00 0.00 0.00 0.00 0.00 0.00 0.00 0.00 0.00 0.00 0.00 0.00 0.00 0.00 0.00 0.00 0.00 0.00 0.00 0.00 0.00 0.00 0.00 0.00 0.00 0.00 0.00 0.00 0.00 0.00 0.00
0.00 0.00 0.00 0.00 0.00 0.00 0.00 0.00 0.00 0.00 0.00 0.00 0.00 0.00 0.00 0.00 0.00 0.00 0.00 0.00 0.00 0.00 0.00 0.00 0.00 0.00 0.00 0.00 0.00 0.00 0.00 0.00 0.00 0.00 0.00 0.00 0.00 0.00
0.00 0.00 0.00 0.00 0.00 0.00 0.00 0.00 0.00 0.00 0.00 0.00 0.00 0.00 0.00 0.00 0.00 0.00 0.00 0.00 0.00 0.00 0.00 0.00 0.00 0.00 0.00 0.00 0.00 0.00 0.00 0.00 0.00 0.00 0.00 0.00 0.00 0.00
0.00 0.00 0.00 0.00 0.00 0.00 0.00 0.00 0.00 0.00 0.00 0.00 0.00 0.00 0.00 0.00 0.00 0.00 0.00 0.00 0.00 0.00 0.00 0.00 0.00 0.00 0.00 0.00 0.00 0.00 0.00 0.00 0.00 0.00 0.00 0.00 0.00 0.00
0.00 0.00 0.00 0.00 0.00 0.00 0.00 0.00 0.00 0.00 0.00 0.00 0.00 0.00 0.00 0.00 0.00 0.00 0.00 0.00 0.00 0.00 0.00 0.00 0.00 0.00 0.00 0.00 0.00 0.00 0.00 0.00 0.00 0.00 0.00 0.00 0.00 0.00
0.00 0.00 0.00 0.00 0.00 0.00 0.00 0.00 0.00 0.00 0.00 0.00 0.00 0.00 0.00 0.00 0.00 0.00 0.00 0.00 0.00 0.00 0.00 0.00 0.00 0.00 0.00 0.00 0.00 0.00 0.00 0.00 0.00 0.00 0.00 0.00 0.00 0.00
0.00 0.00 0.00 0.00 0.00 0.00 0.00 0.00 0.00 0.00 0.00 0.00 0.00 0.00 0.00 0.00 0.00 0.00 0.00 0.00 0.00 0.00 0.00 0.00 0.00 0.00 0.00 0.00 0.00 0.00 0.00 0.00 0.00 0.00 0.00 0.00 0.00 0.00
0.00 0.00 0.00 0.00 0.00 0.00 0.00 0.00 0.00 0.00 0.00 0.00 0.00 0.00 0.00 0.00 0.00 0.00 0.00 0.00 0.00 0.00 0.00 0.00 0.00 0.00 0.00 0.00 0.00 0.00 0.00 0.00 0.00 0.00 0.00 0.00 0.00 0.00
MSLP
1025.54 1025.42 1025.13 1024.87 1024.67 1024.35 1024.03 1023.63 1023.25 1022.16 1020.51 1018.82 1018.79 1018.10 1017.72 1016.90 1016.13 1015.14 1014.09 1012.92 1012.00 1011.47 1010.73 1009.76 1008.26 1006.69 1005.66 1004.83 1004.13 1003.82 1004.93 1005.21 1004.81 1004.63 1005.13 1005.85 1006.94 1007.92
1026.10 1025.67 1025.37 1025.17 1024.98 1024.63 1024.20 1024.18 1023.83 1023.42 1022.09 1020.39 1019.70 1019.13 1018.24 1017.48 1016.58 1015.38 1014.20 1013.20 1012.47 1011.89 1010.86 1010.10 1008.97 1007.82 1006.87 1005.67 1004.35 1003.43 1003.19 1003.22 1003.41 1003.64 1003.99 1004.32 1005.19 1006.20
1026.50 1026.12 1025.85 1025.56 1025.20 1024.84 1024.55 1024.38 1024.00 1023.57 1022.72 1021.19 1020.42 1019.43 1018.76 1017.90 1016.75 1015.70 1014.59 1013.59 1012.94 1012.44 1011.38 1010.59 1009.35 1008.58 1007.89 1006.97 1006.15 1004.85 1003.85 1003.54 1003.01 1002.96 1003.22 1003.43 1003.85 1004.57
1026.75 1026.44 1026.15 1025.83 1025.50 1025.17 1024.94 1024.71 1024.32 1023.73 1023.19 1022.04 1020.90 1020.09 1019.31 1018.49 1017.45 1016.18 1015.20 1014.26 1013.79 1013.07 1012.09 1011.05 1010.15 1009.35 1008.04 1007.42 1006.91 1006.39 1005.28 1004.75 1004.21 1003.31 1003.27 1003.09 1003.25 1003.98
1027.39 1027.05 1026.60 1026.28 1025.94 1025.54 1025.25 1024.92 1024.56 1024.10 1023.58 1022.93 1021.97 1021.23 1020.31 1019.16 1017.83 1016.81 1015.91 1015.06 1014.25 1013.83 1012.62 1011.85 1010.93 1009.97 1009.51 1008.32 1008.07 1007.47 1006.58 1005.84 1006.28 1004.97 1004.07 1003.77 1003.69 1003.05
1027.74 1027.37 1026.85 1026.55 1026.25 1025.81 1025.50 1025.23 1024.83 1024.40 1023.86 1023.18 1022.46 1021.56 1020.62 1019.76 1018.85 1017.71 1016.17 1015.50 1014.66 1014.34 1013.58 1012.77 1011.78 1010.61 1009.97 1009.32 1009.15 1008.22 1007.74 1006.94 1007.54 1006.40 1005.46 1005.00 1003.96 1003.59
1028.13 1027.80 1027.25 1026.72 1026.48 1026.06 1025.74 1025.60 1025.18 1024.75 1024.24 1023.60 1022.93 1022.16 1021.18 1020.03 1019.40 1019.29 1018.11 1016.64 1015.10 1015.23 1014.61 1013.38 1012.68 1011.47 1010.36 1010.36 1009.92 1008.98 1008.50 1007.67 1007.22 1007.24 1005.88 1005.37 1005.04 1004.29
1028.88 1028.41 1027.85 1027.41 1027.22 1026.73 1026.25 1026.03 1025.59 1025.26 1024.96 1024.55 1024.01 1023.38 1022.65 1021.99 1021.10 1020.30 1019.30 1017.70 1016.19 1016.09 1015.72 1014.08 1013.83 1012.66 1011.91 1011.26 1010.75 1009.80 1008.46 1007.72 1007.05 1007.61 1006.82 1005.90 1005.77 1005.48
1029.40 1029.02 1028.40 1027.95 1027.71 1027.47 1027.08 1026.69 1026.43 1025.91 1025.62 1025.33 1025.02 1024.55 1023.78 1023.10 1022.37 1021.03 1020.30 1019.36 1018.43 1017.94 1016.80 1015.06 1014.45 1013.67 1012.93 1012.01 1011.26 1010.93 1010.40 1009.58 1008.81 1008.19 1007.68 1007.00 1006.39 1005.85
1029.74 1029.55 1029.07 1028.46 1027.54 1027.79 1027.61 1027.20 1026.99 1026.74 1026.09 1025.59 1025.39 1025.08 1024.60 1023.81 1023.33 1022.52 1021.55 1020.20 1018.58 1018.54 1018.33 1016.69 1015.36 1014.62 1013.54 1012.57 1012.10 1011.76 1011.05 1010.24 1009.98 1009.64 1009.32 1008.53 1007.75 1006.75
1029.78 1029.38 1029.31 1028.65 1027.63 1027.51 1027.71 1027.52 1027.37 1027.18 1026.70 1026.06 1025.64 1025.22 1024.83 1024.16 1023.60 1022.88 1021.91 1020.68 1019.52 1019.04 1019.25 1018.69 1017.19 1015.85 1014.17 1013.34 1012.78 1012.37 1011.93 1011.32 1010.67 1010.04 1010.04 1009.23 1007.75 1007.45
1029.47 1029.26 1028.76 1028.58 1028.03 1027.79 1028.02 1027.95 1027.84 1027.81 1027.32 1026.59 1026.14 1025.67 1025.24 1024.64 1024.09 1023.68 1023.14 1022.40 1021.72 1020.39 1020.39 1019.78 1018.48 1017.90 1015.70 1014.03 1013.64 1013.02 1012.38 1011.70 1011.13 1010.73 1009.97 1009.08 1008.49 1007.83
1030.01 1029.85 1029.40 1029.00 1028.51 1028.39 1028.35 1028.30 1028.30 1028.20 1027.63 1027.22 1026.79 1026.28 1025.77 1025.31 1024.78 1024.30 1023.78 1023.47 1022.88 1022.47 1022.04 1021.20 1019.98 1019.10 1018.19 1016.29 1014.75 1014.04 1013.56 1012.82 1012.24 1011.46 1010.68 1010.22 1009.66 1008.87
1030.61 1030.49 1030.19 1029.60 1029.42 1028.92 1028.99 1028.90 1028.90 1028.87 1028.43 1028.05 1027.57 1027.09 1026.49 1025.93 1025.47 1025.01 1024.28 1023.78 1023.30 1023.03 1022.32 1021.84 1021.08 1020.51 1019.58 1017.93 1016.38 1015.24 1014.48 1013.74 1013.49 1012.92 1012.03 1011.07 1010.08 1009.19
1030.99 1030.50 1030.35 1030.36 1030.33 1030.50 1029.61 1029.60 1030.00 1029.68 1029.31 1028.94 1028.70 1028.33 1027.86 1027.16 1026.24 1025.34 1024.65 1024.14 1023.49 1023.01 1022.44 1022.21 1021.74 1020.88 1020.28 1019.35 1018.27 1016.87 1015.80 1014.51 1014.14 1013.44 1012.56 1011.71 1011.18 1009.80
1031.95 1032.06 1031.79 1031.36 1031.82 1031.69 1031.19 1030.86 1030.53 1030.17 1029.94 1029.75 1029.51 1029.06 1028.44 1027.81 1027.15 1026.45 1025.59 1024.74 1023.86 1023.27 1023.07 1022.71 1022.04 1021.22 1020.08 1019.32 1018.57 1017.45 1016.89 1016.60 1015.40 1014.58 1013.56 1012.52 1011.31 1010.52
1032.14 1032.39 1032.42 1032.39 1032.29 1031.95 1031.65 1031.30 1030.94 1030.61 1030.43 1030.25 1029.94 1029.51 1029.02 1028.50 1028.02 1027.48 1026.91 1026.20 1025.64 1024.73 1023.55 1022.61 1022.18 1021.55 1020.40 1019.45 1018.55 1018.02 1017.28 1016.52 1015.95 1015.04 1013.96 1012.37 1011.06 1010.40
1031.39 1032.53 1032.79 1032.74 1032.51 1032.14 1031.81 1031.43 1031.13 1030.97 1030.86 1030.66 1030.48 1030.23 1029.83 1029.36 1028.81 1028.16 1027.68 1027.24 1026.54 1025.73 1024.78 1023.92 1023.04 1021.83 1020.50 1019.41 1018.81 1018.27 1017.74 1017.35 1016.17 1015.04 1014.22 1013.08 1011.29 1010.08
1031.25 1032.06 1032.34 1032.40 1032.18 1031.91 1031.77 1031.64 1031.32 1031.11 1031.14 1030.81 1030.68 1030.53 1030.27 1029.76 1029.37 1028.83 1028.36 1027.79 1026.94 1026.14 1025.38 1024.72 1023.96 1023.29 1022.32 1021.51 1019.92 1019.15 1018.39 1017.27 1016.40 1015.57 1014.68 1013.75 1012.51 1010.60
1030.53 1031.32 1031.57 1031.62 1031.57 1031.50 1031.33 1031.31 1031.07 1030.99 1030.91 1030.67 1030.55 1030.36 1030.23 1030.03 1029.48 1029.11 1028.71 1028.37 1027.66 1026.76 1025.70 1025.01 1024.59 1024.15 1023.60 1022.58 1021.20 1019.43 1019.02 1017.82 1016.92 1015.81 1014.80 1013.99 1012.73 1011.21
1030.04 1030.45 1030.42 1030.56 1030.70 1030.67 1030.60 1030.60 1030.62 1030.54 1030.41 1030.34 1030.11 1029.99 1029.80 1029.78 1029.34 1029.03 1028.66 1028.19 1027.75 1027.00 1026.11 1025.20 1024.68 1024.29 1023.43 1022.37 1021.31 1019.83 1018.51 1018.19 1017.45 1016.31 1014.79 1013.51 1011.99 1010.77
1028.87 1029.18 1029.30 1029.51 1029.67 1029.78 1029.80 1029.84 1029.91 1029.84 1029.69 1029.63 1029.35 1029.20 1029.07 1029.16 1028.87 1028.56 1028.25 1027.91 1027.38 1026.82 1026.07 1025.20 1024.39 1023.78 1023.15 1022.43 1021.47 1020.35 1019.03 1017.36 1016.23 1015.47 1014.64 1013.68 1012.62 1010.84
1027.87 1028.19 1028.35 1028.48 1028.67 1028.91 1029.03 1029.11 1029.13 1028.91 1028.67 1028.48 1028.32 1028.11 1028.07 1028.20 1027.78 1027.67 1027.53 1027.18 1026.82 1026.29 1025.65 1024.84 1024.17 1023.66 1023.08 1022.37 1021.56 1020.41 1019.33 1018.09 1016.81 1014.68 1012.94 1012.62 1011.84 1010.60
Thickness
5361 5360 5361 5363 5363 5365 5367 5370 5374 5383 5393 5408 5410 5418 5426 5435 5444 5456 5468 5482 5493 5505 5516 5528 5542 5559 5573 5586 5599 5611 5596 5592 5605 5615 5612 5614 5609 5605
5343 5345 5346 5345 5344 5346 5349 5348 5350 5353 5362 5378 5381 5386 5399 5408 5420 5434 5448 5459 5471 5483 5498 5508 5520 5533 5546 5561 5578 5593 5598 5600 5603 5611 5614 5617 5611 5609
5331 5332 5331 5331 5331 5332 5332 5332 5333 5335 5340 5351 5357 5363 5371 5381 5395 5410 5424 5438 5449 5460 5475 5487 5501 5513 5524 5533 5546 5561 5574 5580 5590 5601 5605 5608 5611 5610
5325 5324 5324 5324 5323 5323 5321 5321 5322 5324 5327 5333 5342 5344 5348 5356 5367 5383 5398 5412 5422 5434 5450 5466 5478 5488 5505 5516 5524 5532 5546 5554 5564 5581 5587 5597 5599 5598
5317 5317 5318 5317 5316 5316 5316 5316 5316 5317 5319 5323 5328 5330 5331 5337 5346 5357 5368 5382 5397 5407 5424 5440 5454 5466 5475 5490 5497 5508 5521 5529 5534 5551 5567 5574 5581 5591
5314 5313 5314 5313 5312 5313 5313 5312 5312 5312 5314 5318 5321 5323 5324 5325 5330 5338 5351 5359 5371 5381 5397 5410 5427 5444 5455 5466 5473 5486 5494 5506 5505 5520 5537 5546 5559 5568
5315 5314 5313 5314 5313 5313 5312 5310 5310 5310 5312 5314 5315 5315 5317 5321 5320 5318 5327 5338 5353 5355 5367 5386 5401 5418 5434 5441 5451 5464 5471 5483 5490 5493 5513 5525 5531 5543
5312 5311 5312 5311 5310 5310 5310 5309 5308 5306 5305 5305 5306 5307 5306 5305 5306 5309 5313 5324 5337 5340 5345 5365 5373 5390 5403 5414 5425 5439 5454 5464 5474 5474 5483 5498 5504 5514
5306 5305 5306 5306 5305 5304 5304 5303 5302 5301 5299 5297 5296 5295 5298 5299 5299 5302 5303 5308 5314 5318 5329 5347 5355 5365 5377 5390 5402 5411 5421 5432 5445 5453 5458 5469 5477 5489
5302 5300 5299 5299 5301 5298 5296 5295 5293 5293 5293 5293 5290 5289 5289 5290 5291 5294 5296 5301 5311 5309 5310 5326 5338 5347 5360 5370 5379 5388 5399 5411 5416 5424 5430 5437 5449 5462
5298 5296 5294 5293 5294 5292 5289 5288 5286 5285 5285 5285 5285 5284 5283 5284 5285 5287 5290 5296 5300 5304 5299 5302 5315 5326 5343 5354 5361 5367 5375 5384 5393 5403 5407 5417 5432 5437
5292 5289 5288 5286 5285 5284 5281 5278 5276 5273 5274 5276 5276 5276 5276 5277 5278 5278 5278 5280 5282 5291 5287 5290 5299 5302 5320 5336 5342 5349 5356 5365 5372 5378 5388 5400 5410 5417
5283 5281 5279 5278 5277 5274 5271 5269 5266 5264 5265 5264 5264 5264 5265 5265 5265 5265 5266 5265 5267 5267 5269 5274 5282 5286 5293 5308 5320 5327 5332 5339 5345 5354 5364 5371 5379 5389
5273 5271 5269 5267 5265 5264 5260 5257 5254 5252 5250 5250 5249 5249 5249 5249 5248 5249 5251 5252 5254 5255 5258 5260 5264 5267 5272 5284 5297 5304 5311 5318 5320 5325 5334 5345 5358 5367
5265 5263 5259 5255 5252 5249 5248 5244 5240 5237 5234 5233 5229 5228 5228 5229 5231 5234 5236 5237 5239 5241 5243 5245 5247 5252 5256 5262 5268 5279 5287 5294 5301 5307 5314 5323 5329 5344
5255 5249 5245 5242 5238 5235 5232 5229 5226 5223 5220 5217 5213 5212 5212 5212 5213 5214 5216 5219 5221 5221 5222 5223 5227 5233 5241 5246 5253 5262 5265 5266 5272 5281 5290 5298 5310 5320
5244 5238 5232 5226 5223 5220 5217 5214 5211 5209 5206 5202 5199 5197 5195 5194 5194 5194 5194 5195 5195 5199 5205 5207 5208 5211 5217 5226 5232 5239 5245 5250 5255 5262 5270 5281 5293 5303
5234 5225 5218 5212 5209 5207 5204 5201 5198 5194 5191 5188 5184 5181 5179 5178 5177 5177 5176 5174 5175 5177 5180 5184 5188 5191 5196 5199 5203 5212 5217 5222 5232 5241 5250 5261 5272 5283
5223 5212 5208 5202 5201 5197 5192 5187 5185 5182 5178 5174 5170 5166 5162 5162 5160 5159 5157 5156 5156 5156 5157 5158 5161 5164 5168 5168 5175 5173 5185 5195 5205 5212 5220 5231 5246 5259
5215 5208 5202 5196 5191 5186 5182 5176 5173 5169 5165 5161 5156 5152 5147 5144 5143 5141 5138 5134 5135 5136 5137 5135 5134 5134 5135 5142 5153 5159 5152 5165 5175 5187 5194 5204 5217 5233
5207 5200 5195 5189 5182 5177 5172 5166 5160 5156 5152 5147 5143 5138 5134 5129 5127 5123 5119 5114 5113 5116 5117 5117 5115 5114 5117 5123 5129 5140 5144 5141 5146 5160 5172 5185 5200 5212
5202 5196 5189 5182 5175 5169 5163 5157 5150 5145 5141 5136 5132 5126 5121 5114 5111 5106 5102 5099 5098 5097 5098 5098 5098 5098 5098 5102 5107 5112 5124 5132 5136 5139 5146 5162 5174 5190
5195 5187 5181 5174 5167 5160 5153 5146 5140 5135 5130 5126 5121 5116 5108 5102 5098 5092 5087 5084 5081 5081 5080 5082 5080 5077 5076 5079 5082 5088 5095 5105 5115 5128 5135 5140 5154 5168